Lid_Strength_Index
3 3 3 3 3 3 3 3 3 3 2 2 2 2 2 2 2 2 4 2 1 -1 1 2 2 1 1 2 2 2 6 7 7 7 6 4 5 3 3 3 3 3 3 2 1
3 3 3 3 3 3 3 3 3 2 2 2 2 2 2 2 2 3 -1 -2 -1 -2 3 3 4 2 3 3 3 4 6 6 5 5 5 4 4 4 4 4 4 3 2 2 2
3 3 3 3 3 3 3 3 3 2 2 2 2 2 2 1 3 4 -2 -2 -1 -1 2 1 2 2 4 3 4 4 6 5 4 4 4 4 5 3 4 5 4 4 3 3 2
3 3 3 3 3 3 3 3 3 2 2 2 2 2 1 1 7 1 -2 -2 -2 1 1 2 3 4 4 5 3 6 4 4 4 4 4 5 4 5 4 4 3 3 2 3 3
3 3 3 3 3 3 3 3 2 2 2 2 2 2 2 3 4 1 -2 -1 1 2 2 3 4 4 5 4 4 5 5 4 4 4 4 3 4 4 5 5 2 3 3 3 3
3 3 3 4 3 3 3 3 3 2 2 2 2 2 2 6 2 1 0 -0 0 2 2 3 3 3 4 4 5 4 4 4 4 4 4 4 4 4 4 4 4 3 3 2 3
4 4 4 4 3 3 3 3 3 2 2 2 2 1 3 4 2 1 1 2 1 1 2 2 3 3 3 5 3 4 6 5 4 4 5 4 6 5 3 4 4 4 3 3 2
4 4 4 4 3 3 3 3 2 2 2 2 1 1 4 1 1 2 1 2 -0 0 1 1 2 3 3 3 4 6 5 8 5 5 4 5 8 5 3 4 5 5 4 3 2
4 4 4 4 3 3 3 3 2 2 2 1 1 2 4 3 2 1 1 2 1 2 2 3 3 4 4 6 7 6 9 8 7 5 5 5 7 5 3 3 4 4 4 3 2
4 5 5 4 4 4 4 3 1 2 1 0 1 4 3 4 3 2 1 1 2 3 4 5 5 6 6 6 10 9 8 8 8 6 5 6 6 5 4 4 4 3 3 3 3
5 5 5 5 4 4 4 2 3 3 2 5 5 5 4 3 2 3 1 2 2 3 6 5 7 8 6 6 6 7 7 8 7 5 6 6 6 5 4 4 4 4 3 3 3
5 5 5 5 4 4 3 5 6 5 7 4 4 4 3 3 5 3 1 4 4 6 5 6 8 6 5 5 6 7 8 8 6 5 6 6 7 5 5 4 4 4 3 3 3
6 5 5 5 5 5 4 5 3 4 7 5 4 4 4 3 5 4 3 3 5 6 6 7 6 5 6 6 7 7 8 8 8 6 6 7 8 6 5 4 4 3 3 3 3
6 6 6 6 5 4 4 4 3 3 8 7 6 5 4 3 5 3 2 3 5 6 6 6 5 6 6 7 6 9 6 7 7 8 10 6 11 8 6 6 5 4 3 3 3
6 6 6 7 4 5 5 3 3 3 13 7 6 3 4 5 5 4 2 3 6 6 6 7 6 7 7 7 6 7 6 6 7 8 8 8 10 8 6 7 6 4 4 3 3
6 6 6 4 3 4 4 3 3 8 13 9 7 7 6 5 5 4 4 3 3 6 5 6 4 5 6 5 5 5 6 7 7 8 11 9 10 10 8 7 5 4 4 3 3
6 6 6 4 6 4 4 4 9 11 7 9 9 8 7 7 7 6 6 6 7 9 9 7 7 5 5 7 6 6 8 12 12 12 13 8 10 9 6 5 5 5 4 3 3
7 7 5 4 4 4 4 7 12 9 9 8 9 8 9 8 7 8 7 8 6 7 9 10 11 7 5 6 8 7 8 11 15 14 12 8 11 9 5 5 4 4 4 4 3
8 3 4 4 4 4 6 10 10 9 9 10 9 10 9 9 9 8 7 8 7 7 10 10 10 6 6 5 6 8 9 7 11 10 12 10 9 7 5 6 5 5 4 4 4
6 4 4 4 3 4 7 10 9 9 9 9 11 10 11 8 11 9 8 9 9 8 5 8 11 7 6 6 6 7 6 10 10 16 16 12 11 10 8 7 6 5 5 5 4
5 7 5 4 4 6 9 9 9 8 9 10 10 10 10 10 10 10 9 9 10 8 6 6 8 9 7 8 9 8 9 8 9 11 16 16 12 8 8 8 6 5 5 4 4
6 9 4 5 8 8 11 11 11 10 9 10 10 10 10 10 11 10 10 8 9 8 9 7 9 11 9 6 6 7 8 9 14 14 12 12 12 7 7 7 6 5 5 4 4
7 7 4 5 12 12 10 11 11 11 10 11 11 10 9 10 11 10 9 8 8 8 8 7 9 12 11 8 6 8 8 7 8 10 14 16 13 8 7 6 6 6 6 4 3
6 9 7 7 9 11 12 12 12 10 10 10 10 9 10 10 8 10 9 7 8 7 7 7 8 10 12 10 9 10 10 8 8 12 11 12 11 8 9 8 7 5 6 5 4
5 8 8 11 11 11 10 11 13 12 10 9 10 10 10 10 9 8 7 7 6 5 6 6 10 9 9 8 9 10 10 10 10 9 11 10 9 8 8 8 7 7 7 6 4
8 9 8 10 9 10 11 11 12 12 11 10 10 8 8 9 8 8 7 7 8 6 6 6 10 8 10 8 8 10 9 9 9 9 9 9 9 6 6 7 8 8 7 7 5
5 5 8 9 10 10 10 11 12 10 9 8 8 8 8 7 5 5 4 5 5 7 7 7 9 10 13 9 10 12 9 9 8 7 8 10 8 6 6 6 6 6 7 7 7